Time,TemperatureF,DewpointF,PressureIn,WindDirection,WindDirectionDegrees,WindSpeedMPH,WindSpeedGustMPH,Humidity,HourlyPrecipIn,Conditions,Clouds,dailyrainin,SoftwareType,DateUTC
2013-08-29 00:00:00,75.1,71.6,30.10,NW,318,0.0,0.0,89,0.00,,,0.00,VWS V14.01,2013-08-29 05:00:00,
2013-08-29 00:01:00,75.1,71.6,30.10,NW,318,0.0,0.0,89,0.00,,,0.00,VWS V14.01,2013-08-29 05:01:00,
2013-08-29 00:06:00,75.1,71.6,30.10,South,177,1.5,1.5,89,0.00,,,0.00,VWS V14.01,2013-08-29 05:06:00,
2013-08-29 00:11:00,75.2,71.4,30.10,South,190,0.0,1.0,88,0.00,,,0.00,VWS V14.01,2013-08-29 05:11:00,
2013-08-29 00:16:00,75.3,71.5,30.10,South,190,0.0,1.0,88,0.00,,,0.00,VWS V14.01,2013-08-29 05:16:00,
2013-08-29 00:21:00,75.3,71.5,30.10,South,190,0.0,1.0,88,0.00,,,0.00,VWS V14.01,2013-08-29 05:21:00,
2013-08-29 00:26:00,75.2,71.4,30.10,South,190,0.0,1.0,88,0.00,,,0.00,VWS V14.01,2013-08-29 05:26:00,
2013-08-29 00:31:00,75.1,71.3,30.10,South,190,0.0,1.0,88,0.00,,,0.00,VWS V14.01,2013-08-29 05:31:00,
2013-08-29 00:36:00,75.0,71.5,30.10,South,190,0.0,1.0,89,0.00,,,0.00,VWS V14.01,2013-08-29 05:36:00,
2013-08-29 00:41:00,74.9,71.4,30.10,South,190,0.0,1.0,89,0.00,,,0.00,VWS V14.01,2013-08-29 05:41:00,
2013-08-29 00:46:00,74.7,71.2,30.10,South,190,0.0,1.0,89,0.00,,,0.00,VWS V14.01,2013-08-29 05:46:00,
2013-08-29 00:51:00,74.6,71.2,30.10,South,190,0.0,1.0,89,0.00,,,0.00,VWS V14.01,2013-08-29 05:51:00,
2013-08-29 00:56:00,74.6,71.2,30.10,SSE,149,0.0,1.0,89,0.00,,,0.00,VWS V14.01,2013-08-29 05:56:00,
2013-08-29 01:00:00,75.1,71.6,30.10,NW,318,0.0,0.0,89,0.00,,,0.00,VWS V15.00,2013-08-29 06:00:00,
2013-08-29 01:01:00,74.5,71.1,30.10,SSE,149,0.0,1.0,89,0.00,,,0.00,VWS V14.01,2013-08-29 06:01:00,
2013-08-29 01:06:00,74.3,71.2,30.10,SSE,149,0.0,1.0,90,0.00,,,0.00,VWS V14.01,2013-08-29 06:06:00,
2013-08-29 01:11:00,74.1,71.0,30.10,SSE,149,0.0,1.0,90,0.00,,,0.00,VWS V14.01,2013-08-29 06:11:00,
2013-08-29 01:16:00,74.0,70.9,30.10,SSE,150,0.0,1.0,90,0.00,,,0.00,VWS V14.01,2013-08-29 06:16:00,
2013-08-29 01:21:00,73.9,70.8,30.10,SSE,151,0.0,1.0,90,0.00,,,0.00,VWS V14.01,2013-08-29 06:21:00,
2013-08-29 01:26:00,73.7,70.9,30.09,SSE,150,0.0,1.0,91,0.00,,,0.00,VWS V14.01,2013-08-29 06:26:00,
2013-08-29 01:31:00,73.5,70.7,30.10,SSE,150,0.0,1.0,91,0.00,,,0.00,VWS V14.01,2013-08-29 06:31:00,
2013-08-29 01:36:00,73.4,70.6,30.09,SSE,150,0.0,1.0,91,0.00,,,0.00,VWS V14.01,2013-08-29 06:36:00,
2013-08-29 01:41:00,73.2,70.7,30.09,SSE,150,0.0,1.0,92,0.00,,,0.00,VWS V14.01,2013-08-29 06:41:00,
2013-08-29 01:46:00,73.2,70.7,30.10,SSE,152,0.0,1.0,92,0.00,,,0.00,VWS V14.01,2013-08-29 06:46:00,
2013-08-29 01:51:00,73.2,70.7,30.10,SSE,152,0.0,1.0,92,0.00,,,0.00,VWS V14.01,2013-08-29 06:51:00,
2013-08-29 01:56:00,73.3,70.8,30.09,SSE,168,0.0,1.0,92,0.00,,,0.00,VWS V14.01,2013-08-29 06:56:00,
2013-08-29 02:00:00,73.3,70.5,30.09,SSE,168,0.0,1.0,91,0.00,,,0.00,VWS V14.01,2013-08-29 07:00:00,
2013-08-29 02:01:00,73.2,70.4,30.10,SSE,167,0.0,0.0,91,0.00,,,0.00,VWS V14.01,2013-08-29 07:01:00,
2013-08-29 02:06:00,73.1,70.3,30.09,SSE,168,0.0,0.0,91,0.00,,,0.00,VWS V14.01,2013-08-29 07:06:00,
2013-08-29 02:11:00,72.8,70.3,30.09,SSE,168,0.0,0.0,92,0.00,,,0.00,VWS V14.01,2013-08-29 07:11:00,
2013-08-29 02:16:00,72.7,70.6,30.10,SSE,167,0.0,0.0,93,0.00,,,0.00,VWS V14.01,2013-08-29 07:16:00,
2013-08-29 02:21:00,72.6,70.5,30.10,SSE,167,0.0,0.0,93,0.00,,,0.00,VWS V14.01,2013-08-29 07:21:00,
2013-08-29 02:26:00,72.5,70.4,30.10,SSE,167,0.0,0.0,93,0.00,,,0.00,VWS V14.01,2013-08-29 07:26:00,
2013-08-29 02:31:00,72.3,70.2,30.10,SSE,167,0.0,0.0,93,0.00,,,0.00,VWS V14.01,2013-08-29 07:31:00,
2013-08-29 02:36:00,72.1,70.0,30.10,SSE,167,0.0,0.0,93,0.00,,,0.00,VWS V14.01,2013-08-29 07:36:00,
2013-08-29 02:41:00,72.2,70.4,30.10,SSE,168,0.0,0.0,94,0.00,,,0.00,VWS V14.01,2013-08-29 07:41:00,
2013-08-29 02:46:00,72.2,70.1,30.10,SSE,168,0.0,0.0,93,0.00,,,0.00,VWS V14.01,2013-08-29 07:46:00,
2013-08-29 02:51:00,72.0,69.9,30.10,SSE,168,0.0,0.0,93,0.00,,,0.00,VWS V14.01,2013-08-29 07:51:00,
2013-08-29 02:56:00,71.8,69.7,30.10,SSE,167,0.0,0.0,93,0.00,,,0.00,VWS V14.01,2013-08-29 07:56:00,
2013-08-29 03:00:00,73.3,70.5,30.09,SSE,168,0.0,1.0,91,0.00,,,0.00,VWS V15.00,2013-08-29 08:00:00,
2013-08-29 03:01:00,71.7,69.9,30.10,SSE,168,0.0,0.0,94,0.00,,,0.00,VWS V14.01,2013-08-29 08:01:00,
2013-08-29 03:06:00,71.5,69.7,30.10,SSE,167,0.0,0.0,94,0.00,,,0.00,VWS V14.01,2013-08-29 08:06:00,
2013-08-29 03:11:00,71.4,69.6,30.10,SSE,168,0.0,0.0,94,0.00,,,0.00,VWS V14.01,2013-08-29 08:11:00,
2013-08-29 03:16:00,71.2,69.4,30.10,SSE,167,0.0,0.0,94,0.00,,,0.00,VWS V14.01,2013-08-29 08:16:00,
2013-08-29 03:21:00,71.1,69.6,30.10,SSE,167,0.0,0.0,95,0.00,,,0.00,VWS V14.01,2013-08-29 08:21:00,
2013-08-29 03:26:00,71.1,69.9,30.10,SSE,167,0.0,0.0,96,0.00,,,0.00,VWS V14.01,2013-08-29 08:26:00,
2013-08-29 03:31:00,71.1,69.9,30.10,SSE,167,0.0,0.0,96,0.00,,,0.00,VWS V14.01,2013-08-29 08:31:00,
2013-08-29 03:36:00,71.1,69.9,30.10,SSE,168,0.0,0.0,96,0.00,,,0.00,VWS V14.01,2013-08-29 08:36:00,
2013-08-29 03:41:00,71.0,69.8,30.10,SSE,167,0.0,0.0,96,0.00,,,0.00,VWS V14.01,2013-08-29 08:41:00,
2013-08-29 03:46:00,70.9,69.7,30.10,SSE,167,0.0,0.0,96,0.00,,,0.00,VWS V14.01,2013-08-29 08:46:00,
2013-08-29 03:51:00,70.9,69.7,30.10,SSE,167,0.0,0.0,96,0.00,,,0.00,VWS V14.01,2013-08-29 08:51:00,
2013-08-29 03:56:00,71.0,69.8,30.10,SSE,167,0.0,0.0,96,0.00,,,0.00,VWS V14.01,2013-08-29 08:56:00,
2013-08-29 04:00:00,71.0,69.8,30.10,SSE,167,0.0,0.0,96,0.00,,,0.00,VWS V14.01,2013-08-29 09:00:00,
2013-08-29 04:01:00,71.0,69.8,30.10,SSE,167,0.0,0.0,96,0.00,,,0.00,VWS V14.01,2013-08-29 09:01:00,
2013-08-29 04:06:00,70.9,69.7,30.09,SSE,167,0.0,0.0,96,0.00,,,0.00,VWS V14.01,2013-08-29 09:06:00,
2013-08-29 04:11:00,70.7,69.5,30.10,SSE,167,0.0,0.0,96,0.00,,,0.00,VWS V14.01,2013-08-29 09:11:00,
2013-08-29 04:16:00,70.6,69.4,30.10,SSE,168,0.0,0.0,96,0.00,,,0.00,VWS V14.01,2013-08-29 09:16:00,
2013-08-29 04:21:00,70.5,69.3,30.10,SSE,168,0.0,0.0,96,0.00,,,0.00,VWS V14.01,2013-08-29 09:21:00,
2013-08-29 04:26:00,70.4,69.5,30.10,SSE,168,0.0,0.0,97,0.00,,,0.00,VWS V14.01,2013-08-29 09:26:00,
2013-08-29 04:31:00,70.4,69.5,30.10,SSE,167,0.0,0.0,97,0.00,,,0.00,VWS V14.01,2013-08-29 09:31:00,
2013-08-29 04:36:00,70.3,69.4,30.10,SSE,167,0.0,0.0,97,0.00,,,0.00,VWS V14.01,2013-08-29 09:36:00,
2013-08-29 04:41:00,70.2,69.3,30.10,SSE,167,0.0,0.0,97,0.00,,,0.00,VWS V14.01,2013-08-29 09:41:00,
2013-08-29 04:46:00,70.1,69.2,30.10,SSE,167,0.0,0.0,97,0.00,,,0.00,VWS V14.01,2013-08-29 09:46:00,
2013-08-29 04:51:00,70.1,69.2,30.10,SSE,167,0.0,0.0,97,0.00,,,0.00,VWS V14.01,2013-08-29 09:51:00,
2013-08-29 04:56:00,70.0,69.1,30.10,SSE,168,0.0,0.0,97,0.00,,,0.00,VWS V14.01,2013-08-29 09:56:00,
2013-08-29 05:00:00,71.0,69.8,30.10,SSE,167,0.0,0.0,96,0.00,,,0.00,VWS V15.00,2013-08-29 10:00:00,
2013-08-29 05:01:00,69.9,69.0,30.10,SSE,167,0.0,0.0,97,0.00,,,0.00,VWS V14.01,2013-08-29 10:01:00,
2013-08-29 05:06:00,69.9,69.0,30.10,SSE,167,0.0,0.0,97,0.00,,,0.00,VWS V14.01,2013-08-29 10:06:00,
2013-08-29 05:11:00,69.8,68.9,30.10,SSE,167,0.0,0.0,97,0.00,,,0.00,VWS V14.01,2013-08-29 10:11:00,
2013-08-29 05:16:00,69.8,68.9,30.10,SSE,167,0.0,0.0,97,0.00,,,0.00,VWS V14.01,2013-08-29 10:16:00,
2013-08-29 05:21:00,69.8,68.9,30.10,SSE,167,0.0,0.0,97,0.00,,,0.00,VWS V14.01,2013-08-29 10:21:00,
2013-08-29 05:26:00,69.7,68.8,30.10,SSE,168,0.0,0.0,97,0.00,,,0.00,VWS V14.01,2013-08-29 10:26:00,
2013-08-29 05:31:00,69.8,68.9,30.10,SSE,168,0.0,0.0,97,0.00,,,0.00,VWS V14.01,2013-08-29 10:31:00,
2013-08-29 05:36:00,69.8,68.9,30.10,SSE,167,0.0,0.0,97,0.00,,,0.00,VWS V14.01,2013-08-29 10:36:00,
2013-08-29 05:41:00,69.8,68.9,30.10,SSE,167,0.0,0.0,97,0.00,,,0.00,VWS V14.01,2013-08-29 10:41:00,
2013-08-29 05:46:00,69.8,68.9,30.10,SSE,167,0.0,0.0,97,0.00,,,0.00,VWS V14.01,2013-08-29 10:46:00,
2013-08-29 05:51:00,69.8,68.9,30.10,SSE,168,0.0,0.0,97,0.00,,,0.00,VWS V14.01,2013-08-29 10:51:00,
2013-08-29 05:56:00,69.8,68.9,30.10,SSE,167,0.0,0.0,97,0.00,,,0.00,VWS V14.01,2013-08-29 10:56:00,
2013-08-29 06:00:00,69.8,68.9,30.10,SSE,167,0.0,0.0,97,0.00,,,0.00,VWS V14.01,2013-08-29 11:00:00,
2013-08-29 06:01:00,69.8,68.9,30.10,SSE,168,0.0,0.0,97,0.00,,,0.00,VWS V14.01,2013-08-29 11:01:00,
2013-08-29 06:06:00,69.8,68.9,30.10,SSE,167,0.0,0.0,97,0.00,,,0.00,VWS V14.01,2013-08-29 11:06:00,
2013-08-29 06:11:00,70.0,68.8,30.11,SSE,167,0.0,0.0,96,0.00,,,0.00,VWS V14.01,2013-08-29 11:11:00,
2013-08-29 06:16:00,70.0,68.8,30.11,SSE,166,0.0,0.0,96,0.00,,,0.00,VWS V14.01,2013-08-29 11:16:00,
2013-08-29 06:21:00,69.9,68.7,30.11,SSE,168,0.0,0.0,96,0.00,,,0.00,VWS V14.01,2013-08-29 11:21:00,
2013-08-29 06:26:00,69.9,68.7,30.11,SSE,166,0.0,0.0,96,0.00,,,0.00,VWS V14.01,2013-08-29 11:26:00,
2013-08-29 06:31:00,69.8,68.6,30.11,SSE,167,0.0,0.0,96,0.00,,,0.00,VWS V14.01,2013-08-29 11:31:00,
2013-08-29 06:36:00,69.7,68.5,30.11,SSE,167,0.0,0.0,96,0.00,,,0.00,VWS V14.01,2013-08-29 11:36:00,
2013-08-29 06:41:00,69.6,68.4,30.12,SSE,166,0.0,0.0,96,0.00,,,0.00,VWS V14.01,2013-08-29 11:41:00,
2013-08-29 06:46:00,69.6,68.4,30.12,SSE,168,0.0,0.0,96,0.00,,,0.00,VWS V14.01,2013-08-29 11:46:00,
2013-08-29 06:51:00,69.5,68.3,30.12,SSE,166,0.0,0.0,96,0.00,,,0.00,VWS V14.01,2013-08-29 11:51:00,
2013-08-29 06:56:00,69.4,68.5,30.12,SSE,166,0.0,0.0,97,0.00,,,0.00,VWS V14.01,2013-08-29 11:56:00,
2013-08-29 07:00:00,69.8,68.9,30.10,SSE,167,0.0,0.0,97,0.00,,,0.00,VWS V15.00,2013-08-29 12:00:00,
2013-08-29 07:01:00,69.6,68.7,30.12,SSE,167,0.0,0.0,97,0.00,,,0.00,VWS V14.01,2013-08-29 12:01:00,
2013-08-29 07:06:00,69.8,68.9,30.12,SSE,167,0.0,0.0,97,0.00,,,0.00,VWS V14.01,2013-08-29 12:06:00,
2013-08-29 07:11:00,70.1,69.2,30.12,SSE,167,0.0,0.0,97,0.00,,,0.00,VWS V14.01,2013-08-29 12:11:00,
2013-08-29 07:16:00,70.7,69.5,30.12,SSE,167,0.0,0.0,96,0.00,,,0.00,VWS V14.01,2013-08-29 12:16:00,
2013-08-29 07:21:00,71.3,69.8,30.12,SSE,167,0.0,0.0,95,0.00,,,0.00,VWS V14.01,2013-08-29 12:21:00,
2013-08-29 07:26:00,72.1,70.0,30.12,SSE,168,0.0,0.0,93,0.00,,,0.00,VWS V14.01,2013-08-29 12:26:00,
2013-08-29 07:31:00,72.9,70.1,30.12,SSE,168,0.0,0.0,91,0.00,,,0.00,VWS V14.01,2013-08-29 12:31:00,
2013-08-29 07:36:00,73.6,70.5,30.12,SSE,168,0.0,0.0,90,0.00,,,0.00,VWS V14.01,2013-08-29 12:36:00,
2013-08-29 07:41:00,74.4,70.6,30.12,SSE,165,0.0,0.0,88,0.00,,,0.00,VWS V14.01,2013-08-29 12:41:00,
2013-08-29 07:46:00,75.1,71.3,30.12,ESE,122,0.0,1.0,88,0.00,,,0.00,VWS V14.01,2013-08-29 12:46:00,
2013-08-29 07:51:00,74.9,71.1,30.12,ENE,78,0.0,3.0,88,0.00,,,0.00,VWS V14.01,2013-08-29 12:51:00,
2013-08-29 07:56:00,75.4,71.3,30.12,South,176,0.0,3.0,87,0.00,,,0.00,VWS V14.01,2013-08-29 12:56:00,
2013-08-29 08:00:00,76.0,71.5,30.12,South,174,0.0,3.0,86,0.00,,,0.00,VWS V14.01,2013-08-29 13:00:00,
2013-08-29 08:01:00,76.4,71.6,30.12,South,174,0.0,0.0,85,0.00,,,0.00,VWS V14.01,2013-08-29 13:01:00,
2013-08-29 08:06:00,77.7,72.1,30.12,SSE,151,0.0,1.0,83,0.00,,,0.00,VWS V14.01,2013-08-29 13:06:00,
2013-08-29 08:11:00,78.4,72.1,30.12,SE,126,1.5,1.5,81,0.00,,,0.00,VWS V14.01,2013-08-29 13:11:00,
2013-08-29 08:16:00,78.8,71.7,30.12,SSE,151,0.0,2.0,79,0.00,,,0.00,VWS V14.01,2013-08-29 13:16:00,
2013-08-29 08:21:00,78.9,71.8,30.12,SE,146,0.0,3.0,79,0.00,,,0.00,VWS V14.01,2013-08-29 13:21:00,
2013-08-29 08:26:00,79.4,72.3,30.12,South,179,6.0,6.0,79,0.00,,,0.00,VWS V14.01,2013-08-29 13:26:00,
2013-08-29 08:31:00,79.7,72.2,30.12,SE,146,0.0,4.0,78,0.00,,,0.00,VWS V14.01,2013-08-29 13:31:00,
2013-08-29 08:36:00,80.2,72.3,30.12,South,170,1.5,4.0,77,0.00,,,0.00,VWS V14.01,2013-08-29 13:36:00,
2013-08-29 08:41:00,80.7,72.0,30.13,SSE,165,1.5,4.0,75,0.00,,,0.00,VWS V14.01,2013-08-29 13:41:00,
2013-08-29 08:46:00,81.2,72.9,30.13,SSE,159,0.0,4.0,76,0.00,,,0.00,VWS V14.01,2013-08-29 13:46:00,
2013-08-29 08:51:00,81.5,72.0,30.13,SSE,167,0.0,4.0,73,0.00,,,0.00,VWS V14.01,2013-08-29 13:51:00,
2013-08-29 08:56:00,82.1,72.6,30.13,South,190,0.0,4.0,73,0.00,,,0.00,VWS V14.01,2013-08-29 13:56:00,
2013-08-29 09:00:00,76.0,71.5,30.12,South,174,0.0,3.0,86,0.00,,,0.00,VWS V15.00,2013-08-29 14:00:00,
2013-08-29 09:01:00,82.3,72.0,30.13,South,184,0.0,4.0,71,0.00,,,0.00,VWS V14.01,2013-08-29 14:01:00,
2013-08-29 09:06:00,82.5,72.2,30.13,SSE,158,0.0,4.0,71,0.00,,,0.00,VWS V14.01,2013-08-29 14:06:00,
2013-08-29 09:11:00,82.7,72.3,30.13,SE,139,0.0,5.0,71,0.00,,,0.00,VWS V14.01,2013-08-29 14:11:00,
2013-08-29 09:16:00,83.2,72.8,30.13,SSE,160,3.0,5.0,71,0.00,,,0.00,VWS V14.01,2013-08-29 14:16:00,
2013-08-29 09:21:00,83.8,73.0,30.13,South,173,1.5,5.0,70,0.00,,,0.00,VWS V14.01,2013-08-29 14:21:00,
2013-08-29 09:26:00,84.3,73.9,30.13,SE,145,3.0,5.0,71,0.00,,,0.00,VWS V14.01,2013-08-29 14:26:00,
2013-08-29 09:31:00,84.7,73.4,30.13,SSE,168,0.0,5.0,69,0.00,,,0.00,VWS V14.01,2013-08-29 14:31:00,
2013-08-29 09:36:00,85.3,74.0,30.12,SSE,163,0.0,5.0,69,0.00,,,0.00,VWS V14.01,2013-08-29 14:36:00,
2013-08-29 09:41:00,85.8,73.6,30.12,West,263,0.0,5.0,67,0.00,,,0.00,VWS V14.01,2013-08-29 14:41:00,
2013-08-29 09:46:00,86.1,73.0,30.13,SE,146,0.0,5.0,65,0.00,,,0.00,VWS V14.01,2013-08-29 14:46:00,
2013-08-29 09:51:00,86.2,73.1,30.13,South,180,1.5,7.0,65,0.00,,,0.00,VWS V14.01,2013-08-29 14:51:00,
2013-08-29 09:56:00,86.2,73.5,30.13,SW,232,0.0,7.0,66,0.00,,,0.00,VWS V14.01,2013-08-29 14:56:00,
2013-08-29 10:00:00,86.5,74.2,30.13,SE,145,0.0,7.0,67,0.00,,,0.00,VWS V14.01,2013-08-29 15:00:00,
2013-08-29 10:01:00,86.6,73.9,30.13,SSE,161,0.0,0.0,66,0.00,,,0.00,VWS V14.01,2013-08-29 15:01:00,
2013-08-29 10:06:00,87.2,73.1,30.13,SSW,201,0.0,1.0,63,0.00,,,0.00,VWS V14.01,2013-08-29 15:06:00,
2013-08-29 10:11:00,87.8,74.1,30.13,SW,225,0.0,2.0,64,0.00,,,0.00,VWS V14.01,2013-08-29 15:11:00,
2013-08-29 10:16:00,88.2,74.0,30.13,SE,131,0.0,2.0,63,0.00,,,0.00,VWS V14.01,2013-08-29 15:16:00,
2013-08-29 10:21:00,88.4,73.7,30.13,SSW,211,4.5,4.5,62,0.00,,,0.00,VWS V14.01,2013-08-29 15:21:00,
2013-08-29 10:26:00,88.5,74.3,30.13,SE,127,3.0,5.0,63,0.00,,,0.00,VWS V14.01,2013-08-29 15:26:00,
2013-08-29 10:31:00,88.3,73.2,30.13,SSW,210,1.5,5.0,61,0.00,,,0.00,VWS V14.01,2013-08-29 15:31:00,
2013-08-29 10:36:00,87.7,72.6,30.13,SSW,198,0.0,5.0,61,0.00,,,0.00,VWS V14.01,2013-08-29 15:36:00,
2013-08-29 10:41:00,87.4,72.8,30.13,South,169,0.0,5.0,62,0.00,,,0.00,VWS V14.01,2013-08-29 15:41:00,
2013-08-29 10:46:00,87.9,73.3,30.13,SE,145,0.0,5.0,62,0.00,,,0.00,VWS V14.01,2013-08-29 15:46:00,
2013-08-29 10:51:00,88.1,72.5,30.13,WNW,298,0.0,5.0,60,0.00,,,0.00,VWS V14.01,2013-08-29 15:51:00,
2013-08-29 10:56:00,88.6,74.4,30.13,SSW,212,4.5,5.0,63,0.00,,,0.00,VWS V14.01,2013-08-29 15:56:00,
2013-08-29 11:00:00,86.5,74.2,30.13,SE,145,0.0,7.0,67,0.00,,,0.00,VWS V15.00,2013-08-29 16:00:00,
2013-08-29 11:01:00,89.0,73.8,30.13,WSW,252,1.5,6.0,61,0.00,,,0.00,VWS V14.01,2013-08-29 16:01:00,
2013-08-29 11:06:00,89.4,73.7,30.13,NW,326,0.0,6.0,60,0.00,,,0.00,VWS V14.01,2013-08-29 16:06:00,
2013-08-29 11:11:00,89.8,74.1,30.13,SSW,201,0.0,6.0,60,0.00,,,0.00,VWS V14.01,2013-08-29 16:11:00,
2013-08-29 11:16:00,90.1,73.3,30.13,South,172,4.5,6.0,58,0.00,,,0.00,VWS V14.01,2013-08-29 16:16:00,
2013-08-29 11:21:00,90.0,73.8,30.13,South,177,1.5,6.0,59,0.00,,,0.00,VWS V14.01,2013-08-29 16:21:00,
2013-08-29 11:26:00,90.5,73.7,30.12,SW,227,1.5,6.0,58,0.00,,,0.00,VWS V14.01,2013-08-29 16:26:00,
2013-08-29 11:31:00,91.0,74.7,30.12,WNW,298,1.5,6.0,59,0.00,,,0.00,VWS V14.01,2013-08-29 16:31:00,
2013-08-29 11:36:00,91.0,74.2,30.12,SSE,152,4.5,6.0,58,0.00,,,0.00,VWS V14.01,2013-08-29 16:36:00,
2013-08-29 11:41:00,91.0,74.7,30.12,SSE,157,0.0,6.0,59,0.00,,,0.00,VWS V14.01,2013-08-29 16:41:00,
2013-08-29 11:46:00,91.0,74.2,30.12,SSE,163,0.0,6.0,58,0.00,,,0.00,VWS V14.01,2013-08-29 16:46:00,
2013-08-29 11:51:00,91.4,75.6,30.12,South,179,0.0,6.0,60,0.00,,,0.00,VWS V14.01,2013-08-29 16:51:00,
2013-08-29 11:56:00,92.0,74.6,30.12,SSW,205,0.0,6.0,57,0.00,,,0.00,VWS V14.01,2013-08-29 16:56:00,
2013-08-29 12:00:00,92.4,75.5,30.12,South,188,0.0,6.0,58,0.00,,,0.00,VWS V14.01,2013-08-29 17:00:00,
2013-08-29 12:01:00,92.7,75.2,30.12,NNW,336,3.0,3.0,57,0.00,,,0.00,VWS V14.01,2013-08-29 17:01:00,
2013-08-29 12:06:00,92.4,74.4,30.12,West,278,0.0,2.0,56,0.00,,,0.00,VWS V14.01,2013-08-29 17:06:00,
2013-08-29 12:11:00,91.9,73.4,30.12,West,273,0.0,2.0,55,0.00,,,0.00,VWS V14.01,2013-08-29 17:11:00,
2013-08-29 12:16:00,91.8,73.3,30.12,WNW,293,1.5,2.0,55,0.00,,,0.00,VWS V14.01,2013-08-29 17:16:00,
2013-08-29 12:21:00,91.8,73.9,30.12,SSW,194,0.0,4.0,56,0.00,,,0.00,VWS V14.01,2013-08-29 17:21:00,
2013-08-29 12:26:00,92.0,73.5,30.12,South,186,0.0,5.0,55,0.00,,,0.00,VWS V14.01,2013-08-29 17:26:00,
2013-08-29 12:31:00,92.2,74.2,30.12,NW,320,0.0,5.0,56,0.00,,,0.00,VWS V14.01,2013-08-29 17:31:00,
2013-08-29 12:36:00,92.6,73.5,30.11,SSE,164,0.0,5.0,54,0.00,,,0.00,VWS V14.01,2013-08-29 17:36:00,
2013-08-29 12:41:00,92.9,73.8,30.11,NNW,336,0.0,5.0,54,0.00,,,0.00,VWS V14.01,2013-08-29 17:41:00,
2013-08-29 12:45:00,92.0,73.5,30.11,NW,316,4.5,5.0,55,0.00,,,0.00,VWS V14.01,2013-08-29 17:45:00,
2013-08-29 12:50:00,91.5,72.0,30.11,South,190,4.5,5.0,53,0.00,,,0.00,VWS V14.01,2013-08-29 17:50:00,
2013-08-29 12:55:00,91.6,73.7,30.11,NNW,338,0.0,5.0,56,0.00,,,0.00,VWS V14.01,2013-08-29 17:55:00,
2013-08-29 13:00:00,91.6,72.1,30.11,ESE,115,0.0,5.0,53,0.00,,,0.00,VWS V14.01,2013-08-29 18:00:00,
2013-08-29 13:05:00,91.4,72.4,30.11,WNW,302,1.5,5.0,54,0.00,,,0.00,VWS V14.01,2013-08-29 18:05:00,
2013-08-29 13:10:00,91.8,73.3,30.11,SSE,160,1.5,5.0,55,0.00,,,0.00,VWS V14.01,2013-08-29 18:10:00,
2013-08-29 13:15:00,92.3,74.3,30.10,SE,141,0.0,5.0,56,0.00,,,0.00,VWS V14.01,2013-08-29 18:15:00,
2013-08-29 13:20:00,92.8,73.7,30.10,SE,136,1.5,5.0,54,0.00,,,0.00,VWS V14.01,2013-08-29 18:20:00,
2013-08-29 13:25:00,92.9,72.7,30.10,NNE,19,6.0,6.0,52,0.00,,,0.00,VWS V14.01,2013-08-29 18:25:00,
2013-08-29 13:30:00,92.5,72.9,30.10,SE,137,0.0,5.0,53,0.00,,,0.00,VWS V14.01,2013-08-29 18:30:00,
2013-08-29 13:35:00,92.7,73.1,30.10,NW,323,0.0,5.0,53,0.00,,,0.00,VWS V14.01,2013-08-29 18:35:00,
2013-08-29 13:40:00,92.7,72.5,30.10,West,271,0.0,5.0,52,0.00,,,0.00,VWS V14.01,2013-08-29 18:40:00,
2013-08-29 13:45:00,92.7,73.6,30.10,NNW,330,0.0,5.0,54,0.00,,,0.00,VWS V14.01,2013-08-29 18:45:00,
2013-08-29 13:50:00,93.1,72.3,30.10,SE,141,0.0,5.0,51,0.00,,,0.00,VWS V14.01,2013-08-29 18:50:00,
2013-08-29 13:55:00,93.4,73.7,30.10,NW,320,1.5,5.0,53,0.00,,,0.00,VWS V14.01,2013-08-29 18:55:00,
2013-08-29 14:00:00,92.6,72.4,30.09,NW,319,0.0,1.0,52,0.00,,,0.00,VWS V14.01,2013-08-29 19:00:00,
2013-08-29 14:05:00,92.6,70.7,30.09,NW,326,6.0,6.0,49,0.00,,,0.00,VWS V14.01,2013-08-29 19:05:00,
2013-08-29 14:10:00,92.4,73.3,30.09,WNW,285,0.0,5.0,54,0.00,,,0.00,VWS V14.01,2013-08-29 19:10:00,
2013-08-29 14:15:00,92.9,72.7,30.09,SE,146,0.0,5.0,52,0.00,,,0.00,VWS V14.01,2013-08-29 19:15:00,
2013-08-29 14:20:00,93.6,72.2,30.09,SE,136,0.0,5.0,50,0.00,,,0.00,VWS V14.01,2013-08-29 19:20:00,
2013-08-29 14:25:00,93.8,74.1,30.08,NW,322,3.0,5.0,53,0.00,,,0.00,VWS V14.01,2013-08-29 19:25:00,
2013-08-29 14:30:00,93.4,73.2,30.08,NW,326,3.0,5.0,52,0.00,,,0.00,VWS V14.01,2013-08-29 19:30:00,
2013-08-29 14:35:00,93.4,72.0,30.08,North,357,3.0,5.0,50,0.00,,,0.00,VWS V14.01,2013-08-29 19:35:00,
2013-08-29 14:40:00,93.9,71.8,30.08,NNE,15,0.0,5.0,49,0.00,,,0.00,VWS V14.01,2013-08-29 19:40:00,
2013-08-29 14:45:00,94.1,72.0,30.08,NNW,340,1.5,5.0,49,0.00,,,0.00,VWS V14.01,2013-08-29 19:45:00,
2013-08-29 14:50:00,93.9,73.0,30.08,NNW,330,4.5,5.0,51,0.00,,,0.00,VWS V14.01,2013-08-29 19:50:00,
2013-08-29 14:55:00,92.9,71.5,30.08,NNE,29,4.5,5.0,50,0.00,,,0.00,VWS V14.01,2013-08-29 19:55:00,
2013-08-29 15:00:00,92.5,71.2,30.08,WNW,288,4.5,5.0,50,0.00,,,0.00,VWS V14.01,2013-08-29 20:00:00,
2013-08-29 15:05:00,92.4,73.3,30.07,NW,309,0.0,5.0,54,0.00,,,0.00,VWS V14.01,2013-08-29 20:05:00,
2013-08-29 15:10:00,92.1,72.0,30.07,NNW,341,0.0,5.0,52,0.00,,,0.00,VWS V14.01,2013-08-29 20:10:00,
2013-08-29 15:15:00,92.1,73.1,30.07,East,86,1.5,5.0,54,0.00,,,0.00,VWS V14.01,2013-08-29 20:15:00,
2013-08-29 15:20:00,92.3,72.1,30.07,North,9,1.5,5.0,52,0.00,,,0.00,VWS V14.01,2013-08-29 20:20:00,
2013-08-29 15:25:00,92.3,70.4,30.07,WNW,294,1.5,5.0,49,0.00,,,0.00,VWS V14.01,2013-08-29 20:25:00,
2013-08-29 15:30:00,92.2,71.5,30.07,NW,318,3.0,6.0,51,0.00,,,0.00,VWS V14.01,2013-08-29 20:30:00,
2013-08-29 15:35:00,92.2,70.9,30.07,NW,326,4.5,6.0,50,0.00,,,0.00,VWS V14.01,2013-08-29 20:35:00,
2013-08-29 15:40:00,91.7,71.0,30.07,NW,319,1.5,6.0,51,0.00,,,0.00,VWS V14.01,2013-08-29 20:40:00,
2013-08-29 15:45:00,91.6,72.1,30.07,NW,313,1.5,6.0,53,0.00,,,0.00,VWS V14.01,2013-08-29 20:45:00,
2013-08-29 15:50:00,91.9,72.9,30.07,NW,318,1.5,6.0,54,0.00,,,0.00,VWS V14.01,2013-08-29 20:50:00,
2013-08-29 15:55:00,91.9,71.2,30.06,WNW,297,0.0,6.0,51,0.00,,,0.00,VWS V14.01,2013-08-29 20:55:00,
2013-08-29 16:00:00,92.2,72.1,30.06,NE,34,0.0,3.0,52,0.00,,,0.00,VWS V14.01,2013-08-29 21:00:00,
2013-08-29 16:05:00,92.4,72.8,30.06,NNW,329,4.5,4.5,53,0.00,,,0.00,VWS V14.01,2013-08-29 21:05:00,
2013-08-29 16:10:00,92.1,71.4,30.06,NNE,33,1.5,4.0,51,0.00,,,0.00,VWS V14.01,2013-08-29 21:10:00,
2013-08-29 16:15:00,92.1,72.5,30.06,NNW,345,0.0,4.0,53,0.00,,,0.00,VWS V14.01,2013-08-29 21:15:00,
2013-08-29 16:20:00,92.3,72.1,30.06,North,1,1.5,4.0,52,0.00,,,0.00,VWS V14.01,2013-08-29 21:20:00,
2013-08-29 16:25:00,92.2,72.6,30.06,NNW,328,1.5,4.0,53,0.00,,,0.00,VWS V14.01,2013-08-29 21:25:00,
2013-08-29 16:30:00,92.2,72.6,30.06,NNE,18,1.5,4.0,53,0.00,,,0.00,VWS V14.01,2013-08-29 21:30:00,
2013-08-29 16:35:00,91.9,70.0,30.06,North,356,3.0,4.0,49,0.00,,,0.00,VWS V14.01,2013-08-29 21:35:00,
2013-08-29 16:40:00,91.5,70.2,30.06,NNW,329,1.5,5.0,50,0.00,,,0.00,VWS V14.01,2013-08-29 21:40:00,
2013-08-29 16:45:00,91.5,70.8,30.06,NNE,13,0.0,5.0,51,0.00,,,0.00,VWS V14.01,2013-08-29 21:45:00,
2013-08-29 16:50:00,91.4,71.9,30.06,WNW,302,0.0,5.0,53,0.00,,,0.00,VWS V14.01,2013-08-29 21:50:00,
2013-08-29 16:55:00,91.3,70.7,30.06,WNW,299,1.5,5.0,51,0.00,,,0.00,VWS V14.01,2013-08-29 21:55:00,
2013-08-29 17:00:00,91.3,71.2,30.05,NW,311,0.0,5.0,52,0.00,,,0.00,VWS V14.01,2013-08-29 22:00:00,
2013-08-29 17:05:00,91.2,70.0,30.05,NW,312,0.0,5.0,50,0.00,,,0.00,VWS V14.01,2013-08-29 22:05:00,
2013-08-29 17:10:00,90.9,69.7,30.05,NW,315,3.0,5.0,50,0.00,,,0.00,VWS V14.01,2013-08-29 22:10:00,
2013-08-29 17:15:00,90.9,70.3,30.05,ENE,57,3.0,5.0,51,0.00,,,0.00,VWS V14.01,2013-08-29 22:15:00,
2013-08-29 17:20:00,91.1,70.5,30.05,NE,40,3.0,5.0,51,0.00,,,0.00,VWS V14.01,2013-08-29 22:20:00,
2013-08-29 17:25:00,91.1,71.6,30.05,NW,315,0.0,5.0,53,0.00,,,0.00,VWS V14.01,2013-08-29 22:25:00,
2013-08-29 17:30:00,90.9,70.8,30.05,North,356,0.0,5.0,52,0.00,,,0.00,VWS V14.01,2013-08-29 22:30:00,
2013-08-29 17:35:00,90.9,70.8,30.04,North,5,0.0,5.0,52,0.00,,,0.00,VWS V14.01,2013-08-29 22:35:00,
2013-08-29 17:40:00,90.7,70.7,30.04,NNW,333,1.5,5.0,52,0.00,,,0.00,VWS V14.01,2013-08-29 22:40:00,
2013-08-29 17:45:00,90.6,71.1,30.04,NNW,345,0.0,5.0,53,0.00,,,0.00,VWS V14.01,2013-08-29 22:45:00,
2013-08-29 17:50:00,90.4,70.9,30.05,North,4,0.0,5.0,53,0.00,,,0.00,VWS V14.01,2013-08-29 22:50:00,
2013-08-29 17:55:00,90.4,71.5,30.05,NNW,345,0.0,5.0,54,0.00,,,0.00,VWS V14.01,2013-08-29 22:55:00,
2013-08-29 18:00:00,90.3,70.3,30.04,NW,312,1.5,1.5,52,0.00,,,0.00,VWS V14.01,2013-08-29 23:00:00,
2013-08-29 18:05:00,90.2,71.3,30.04,NW,318,1.5,1.5,54,0.00,,,0.00,VWS V14.01,2013-08-29 23:05:00,
2013-08-29 18:10:00,90.1,70.7,30.05,NNW,330,0.0,1.0,53,0.00,,,0.00,VWS V14.01,2013-08-29 23:10:00,
2013-08-29 18:15:00,90.0,70.0,30.04,North,349,0.0,1.0,52,0.00,,,0.00,VWS V14.01,2013-08-29 23:15:00,
2013-08-29 18:20:00,90.0,71.1,30.04,NW,320,0.0,2.0,54,0.00,,,0.00,VWS V14.01,2013-08-29 23:20:00,
2013-08-29 18:25:00,89.9,72.1,30.05,NW,322,0.0,2.0,56,0.00,,,0.00,VWS V14.01,2013-08-29 23:25:00,
2013-08-29 18:30:00,89.8,72.6,30.05,NW,322,0.0,2.0,57,0.00,,,0.00,VWS V14.01,2013-08-29 23:30:00,
2013-08-29 18:35:00,89.6,72.4,30.05,NNW,337,0.0,2.0,57,0.00,,,0.00,VWS V14.01,2013-08-29 23:35:00,
2013-08-29 18:40:00,89.4,72.7,30.05,NNW,336,0.0,2.0,58,0.00,,,0.00,VWS V14.01,2013-08-29 23:40:00,
2013-08-29 18:45:00,89.3,72.6,30.05,NW,312,1.5,2.0,58,0.00,,,0.00,VWS V14.01,2013-08-29 23:45:00,
2013-08-29 18:50:00,89.0,72.8,30.05,NW,312,0.0,2.0,59,0.00,,,0.00,VWS V14.01,2013-08-29 23:50:00,
2013-08-29 18:55:00,88.7,72.5,30.05,NW,313,0.0,2.0,59,0.00,,,0.00,VWS V14.01,2013-08-29 23:55:00,
2013-08-29 19:00:00,88.5,72.8,30.05,NW,314,0.0,2.0,60,0.00,,,0.00,VWS V14.01,2013-08-30 00:00:00,
2013-08-29 19:05:00,88.3,72.7,30.05,NW,315,0.0,2.0,60,0.00,,,0.00,VWS V14.01,2013-08-30 00:05:00,
2013-08-29 19:10:00,88.1,73.0,30.05,NW,314,0.0,2.0,61,0.00,,,0.00,VWS V14.01,2013-08-30 00:10:00,
2013-08-29 19:15:00,88.0,72.9,30.05,NW,315,0.0,2.0,61,0.00,,,0.00,VWS V14.01,2013-08-30 00:15:00,
2013-08-29 19:20:00,87.8,73.2,30.05,NW,314,0.0,2.0,62,0.00,,,0.00,VWS V14.01,2013-08-30 00:20:00,
2013-08-29 19:25:00,87.5,72.9,30.05,NW,314,0.0,2.0,62,0.00,,,0.00,VWS V14.01,2013-08-30 00:25:00,
2013-08-29 19:30:00,87.2,74.0,30.05,NW,315,0.0,2.0,65,0.00,,,0.00,VWS V14.01,2013-08-30 00:30:00,
2013-08-29 19:35:00,86.8,75.0,30.05,NW,315,0.0,2.0,68,0.00,,,0.00,VWS V14.01,2013-08-30 00:35:00,
2013-08-29 19:40:00,86.1,74.8,30.05,NW,314,0.0,2.0,69,0.00,,,0.00,VWS V14.01,2013-08-30 00:40:00,
2013-08-29 19:45:00,85.7,74.4,30.05,NW,314,0.0,2.0,69,0.00,,,0.00,VWS V14.01,2013-08-30 00:45:00,
2013-08-29 19:50:00,85.5,74.2,30.05,NW,315,0.0,2.0,69,0.00,,,0.00,VWS V14.01,2013-08-30 00:50:00,
2013-08-29 19:55:00,85.4,72.8,30.05,NW,314,0.0,2.0,66,0.00,,,0.00,VWS V14.01,2013-08-30 00:55:00,
2013-08-29 20:00:00,85.2,72.6,30.06,NW,314,0.0,0.0,66,0.00,,,0.00,VWS V14.01,2013-08-30 01:00:00,
2013-08-29 20:05:00,85.0,72.4,30.06,NW,314,0.0,0.0,66,0.00,,,0.00,VWS V14.01,2013-08-30 01:05:00,
2013-08-29 20:10:00,84.8,72.2,30.06,NW,314,0.0,0.0,66,0.00,,,0.00,VWS V14.01,2013-08-30 01:10:00,
2013-08-29 20:15:00,84.7,72.5,30.06,NW,314,0.0,0.0,67,0.00,,,0.00,VWS V14.01,2013-08-30 01:15:00,
2013-08-29 20:20:00,84.5,73.2,30.06,NW,314,0.0,0.0,69,0.00,,,0.00,VWS V14.01,2013-08-30 01:20:00,
2013-08-29 20:25:00,84.2,72.9,30.06,NW,314,0.0,0.0,69,0.00,,,0.00,VWS V14.01,2013-08-30 01:25:00,
2013-08-29 20:30:00,83.9,72.7,30.06,NW,315,0.0,0.0,69,0.00,,,0.00,VWS V14.01,2013-08-30 01:30:00,
2013-08-29 20:35:00,83.7,72.5,30.06,NW,315,0.0,0.0,69,0.00,,,0.00,VWS V14.01,2013-08-30 01:35:00,
2013-08-29 20:40:00,83.5,72.3,30.06,NW,314,0.0,0.0,69,0.00,,,0.00,VWS V14.01,2013-08-30 01:40:00,
2013-08-29 20:45:00,83.2,72.8,30.06,NW,314,0.0,0.0,71,0.00,,,0.00,VWS V14.01,2013-08-30 01:45:00,
2013-08-29 20:50:00,82.8,72.9,30.06,NW,314,0.0,0.0,72,0.00,,,0.00,VWS V14.01,2013-08-30 01:50:00,
2013-08-29 20:55:00,82.5,73.8,30.06,NW,315,0.0,0.0,75,0.00,,,0.00,VWS V14.01,2013-08-30 01:55:00,
2013-08-29 21:00:00,82.1,73.0,30.06,NW,315,0.0,0.0,74,0.00,,,0.00,VWS V14.01,2013-08-30 02:00:00,
2013-08-29 21:05:00,81.8,73.1,30.06,NW,314,0.0,0.0,75,0.00,,,0.00,VWS V14.01,2013-08-30 02:05:00,
2013-08-29 21:10:00,81.6,73.3,30.06,NW,315,0.0,0.0,76,0.00,,,0.00,VWS V14.01,2013-08-30 02:10:00,
2013-08-29 21:15:00,81.4,73.5,30.06,NW,314,0.0,0.0,77,0.00,,,0.00,VWS V14.01,2013-08-30 02:15:00,
2013-08-29 21:20:00,81.3,73.8,30.07,NW,314,0.0,0.0,78,0.00,,,0.00,VWS V14.01,2013-08-30 02:20:00,
2013-08-29 21:25:00,81.1,73.6,30.06,NW,315,0.0,0.0,78,0.00,,,0.00,VWS V14.01,2013-08-30 02:25:00,
2013-08-29 21:30:00,80.8,73.7,30.07,NW,315,0.0,0.0,79,0.00,,,0.00,VWS V14.01,2013-08-30 02:30:00,
2013-08-29 21:35:00,80.6,73.1,30.06,NW,315,0.0,0.0,78,0.00,,,0.00,VWS V14.01,2013-08-30 02:35:00,
2013-08-29 21:40:00,80.5,73.4,30.06,NW,314,0.0,0.0,79,0.00,,,0.00,VWS V14.01,2013-08-30 02:40:00,
2013-08-29 21:45:00,80.4,73.3,30.06,NW,315,0.0,0.0,79,0.00,,,0.00,VWS V14.01,2013-08-30 02:45:00,
2013-08-29 21:50:00,80.3,73.2,30.06,NW,315,0.0,0.0,79,0.00,,,0.00,VWS V14.01,2013-08-30 02:50:00,
2013-08-29 21:55:00,80.1,73.0,30.06,NW,314,0.0,0.0,79,0.00,,,0.00,VWS V14.01,2013-08-30 02:55:00,
2013-08-29 22:00:00,79.9,72.8,30.06,NW,314,0.0,0.0,79,0.00,,,0.00,VWS V14.01,2013-08-30 03:00:00,
2013-08-29 22:05:00,79.8,73.4,30.06,NW,315,0.0,0.0,81,0.00,,,0.00,VWS V14.01,2013-08-30 03:05:00,
2013-08-29 22:10:00,79.7,73.0,30.06,NW,315,0.0,0.0,80,0.00,,,0.00,VWS V14.01,2013-08-30 03:10:00,
2013-08-29 22:15:00,79.9,72.4,30.06,NW,315,0.0,0.0,78,0.00,,,0.00,VWS V14.01,2013-08-30 03:15:00,
2013-08-29 22:20:00,80.0,72.5,30.06,NW,314,0.0,0.0,78,0.00,,,0.00,VWS V14.01,2013-08-30 03:20:00,
2013-08-29 22:25:00,79.8,72.3,30.06,NW,314,0.0,0.0,78,0.00,,,0.00,VWS V14.01,2013-08-30 03:25:00,
2013-08-29 22:30:00,79.6,72.1,30.06,NW,315,0.0,0.0,78,0.00,,,0.00,VWS V14.01,2013-08-30 03:30:00,
2013-08-29 22:35:00,79.4,72.7,30.06,NW,314,0.0,0.0,80,0.00,,,0.00,VWS V14.01,2013-08-30 03:35:00,
2013-08-29 22:40:00,79.1,72.4,30.06,NW,315,0.0,0.0,80,0.00,,,0.00,VWS V14.01,2013-08-30 03:40:00,
2013-08-29 22:45:00,79.0,72.7,30.06,NW,314,0.0,0.0,81,0.00,,,0.00,VWS V14.01,2013-08-30 03:45:00,
2013-08-29 22:50:00,79.2,72.9,30.06,NW,314,0.0,0.0,81,0.00,,,0.00,VWS V14.01,2013-08-30 03:50:00,
2013-08-29 22:55:00,79.2,72.9,30.06,NW,315,0.0,0.0,81,0.00,,,0.00,VWS V14.01,2013-08-30 03:55:00,
2013-08-29 23:00:00,79.3,73.0,30.06,NW,314,0.0,0.0,81,0.00,,,0.00,VWS V14.01,2013-08-30 04:00:00,
2013-08-29 23:01:00,79.3,73.0,30.06,NW,314,0.0,0.0,81,0.00,,,0.00,VWS V14.01,2013-08-30 04:01:00,
2013-08-29 23:06:00,79.1,73.1,30.06,NW,315,0.0,0.0,82,0.00,,,0.00,VWS V14.01,2013-08-30 04:06:00,
2013-08-29 23:11:00,78.9,73.3,30.06,NW,314,0.0,0.0,83,0.00,,,0.00,VWS V14.01,2013-08-30 04:11:00,
2013-08-29 23:16:00,79.0,73.4,30.06,NW,316,0.0,0.0,83,0.00,,,0.00,VWS V14.01,2013-08-30 04:16:00,
2013-08-29 23:21:00,79.3,73.7,30.06,NW,314,0.0,0.0,83,0.00,,,0.00,VWS V14.01,2013-08-30 04:21:00,
2013-08-29 23:26:00,79.5,73.9,30.06,NW,309,0.0,0.0,83,0.00,,,0.00,VWS V14.01,2013-08-30 04:26:00,
2013-08-29 23:31:00,79.8,74.2,30.06,SSE,153,0.0,1.0,83,0.00,,,0.00,VWS V14.01,2013-08-30 04:31:00,
2013-08-29 23:36:00,80.0,74.0,30.06,South,172,0.0,1.0,82,0.00,,,0.00,VWS V14.01,2013-08-30 04:36:00,
2013-08-29 23:41:00,80.1,74.1,30.06,South,169,0.0,1.0,82,0.00,,,0.00,VWS V14.01,2013-08-30 04:41:00,
2013-08-29 23:46:00,80.0,74.4,30.06,South,169,0.0,1.0,83,0.00,,,0.00,VWS V14.01,2013-08-30 04:46:00,
2013-08-29 23:51:00,79.8,74.2,30.06,South,169,0.0,1.0,83,0.00,,,0.00,VWS V14.01,2013-08-30 04:51:00,
2013-08-29 23:56:00,79.7,74.1,30.06,South,169,0.0,1.0,83,0.00,,,0.00,VWS V14.01,2013-08-30 04:56:00,